Location: Toronto
(43.6667°N, 79.4167°W)
Time: 15:32:26
(UTC-05:00)

ISS - Pass Details

Date: 06 December 2022
Orbit: 412 x 423 km, 51.6° (Epoch: 07 February)

Event Time Altitude Azimuth Distance (km) Brightness Sun altitude
Rises 17:05:02 0° 302° (WNW) 2,348 0.5 -4.7°
Reaches altitude 10° 17:07:08 10° 304° (NW) 1,484 -0.6 -5.0°
Maximum altitude 17:10:27 75° 30° (NNE) 432 -3.8 -5.5°
Drops below altitude 10° 17:13:47 10° 117° (ESE) 1,484 -1.3 -6.1°
Enters shadow 17:17:06 -4° 120° (ESE) 2,858 0.1 -6.6°
